Location: �terpigny
(49.8910°N, 2.9249°E)
Time: 15:52:48
(UTC+00:00)

H-2A R/B - Pass Details

Date: 24 October 2021
Orbit: 527 x 651 km, 98.3° (Epoch: 27 November)

Event Time Altitude Azimuth Distance (km) Brightness Sun altitude
Rises 18:18:47 0° 164° (SSE) 2,881 5.8 -16.6°
Reaches altitude 10° 18:20:59 10° 165° (SSE) 1,962 5.0 -17.0°
Maximum altitude 18:25:16 87° 257° (WSW) 602 2.4 -17.7°
Drops below altitude 10° 18:29:24 10° 345° (NNW) 1,902 5.3 -18.3°
Sets 18:31:31 0° 346° (NNW) 2,785 6.1 -18.7°
